Home > Time Zones > World Clock > Weather > Cuba > Havana > Past weeks

Flag for Cuba Weather past 2 weeks in Havana, Cuba

Now
90 °F

Scattered clouds.


Feels Like: 92 °F
Forecast: 79 / 87 °F
Wind: 9 mph from Northeast

Location: Aeropuerto Jose Marti - Rancho-Boyeros - Habana

Current Time: Sep 23, 2014 at 2:45:32 PM

Latest Report: Sep 23, 2014 at 1:55 PM


Visibility: 6 mi

Pressure: 29.98 "Hg

Humidity: 46%

Dew point: 66 °F

Location of HavanaLocation

Historic Weather in Havana — Graph

°F

Havana temperature yesterday

Maximum temperature yesterday: 91 °F (at 2:55 PM)
Minimum temperature yesterday: 72 °F (at 3:55 AM)
Average temperature yesterday: 80 °F

Past Weeks' High & Low Weather Summary

 TemperatureHumidityPressure
High91 °F (Sep 22, 2:55 PM)94% (Sep 9, 7:55 AM)30.12 "Hg (Sep 9, 7:55 AM)
Low68 °F (Sep 14, 5:55 AM)46% (Sep 11, 3:55 PM)29.89 "Hg (Sep 20, 3:55 PM)
Average78 °F77%30.00 "Hg
* Reported Sep 8 1:55 PM — Sep 23 1:55 PM, Havana, Weather by CustomWeather, © 2014

Note: Actual official high and low records may vary slightly from our data, if they occured in-between our weather recording intervals... More about our weather records

Advertising

Havana weather history for previous 24 hours

 ConditionsComfort  
Time TempWeatherWind HumidityBarometerVisibility
1:55 PM
Sep 23
90 °FScattered clouds.9 mph46%29.98 "Hg6 mi
12:55 PM90 °FScattered clouds.10 mph49%30.01 "Hg6 mi
11:55 AM86 °FPassing clouds.10 mph59%30.01 "Hg6 mi
10:55 AM84 °FPassing clouds.12 mph66%30.01 "Hg6 mi
9:55 AM81 °FPassing clouds.10 mph74%30.01 "Hg6 mi
8:55 AM75 °FPassing clouds.5 mph89%30.01 "Hg6 mi
7:55 AM73 °FPassing clouds.5 mph89%29.98 "Hg6 mi
6:55 AM73 °FPassing clouds.7 mph89%29.95 "Hg5 mi
5:55 AM73 °FClear.3 mph89%29.95 "Hg4 mi
4:55 AM73 °FPassing clouds.7 mph89%29.95 "Hg4 mi
3:55 AM75 °FPassing clouds.14 mph83%29.95 "Hg4 mi
2:55 AM73 °FClear.3 mph89%29.98 "Hg6 mi
1:55 AM73 °FClear.2 mph89%29.98 "Hg6 mi
12:55 AM75 °FClear.3 mph89%30.01 "Hg6 mi
11:55 PM
Sep 22
77 °FClear.2 mph83%29.98 "Hg6 mi
10:55 PM77 °FPassing clouds.2 mph83%29.98 "HgN/A
9:55 PM77 °FPassing clouds.6 mph83%30.01 "HgN/A
8:55 PM79 °FPartly cloudy.6 mph74%29.98 "HgN/A
7:55 PM81 °FPartly sunny.7 mph70%29.98 "HgN/A
5:55 PM84 °FScattered clouds.12 mph62%29.92 "HgN/A
4:55 PM86 °FPassing clouds.9 mph55%29.92 "HgN/A
3:55 PM91 °FScattered clouds.15 mph49%29.92 "HgN/A
2:55 PM91 °FScattered clouds.5 mph49%29.95 "HgN/A
Weather by CustomWeather, © 2014

See weather overviewHow to use our weather pages